WXM80 ListenWXM80 Stop

You find our weather info also at:

UK Metoffice

WeatherCloud

Weather Underground

Northeastern Weather Network

AWEKAS

Citizen Weather Observer Program (CWOP)

HAMweather, WeatherForYou, PWS Weather


Weather Underground History page Text

Daily Summary for May 17, 2017 Units:  Metric    English   Both
« Previous Day
Next Day »
Daily Weekly Monthly Yearly Custom
  High: Low: Average:
Temperature: 33.3 °C 13.4 °C 24.1 °C
Dew Point: 19.6 °C 10.5 °C 15.9 °C
Humidity: 89 % 41 % 63 %
Wind Speed: 11.3 km/h 0 km/h 3.4 km/h
Wind Gust: 20.9 km/h - -
Wind:- - SW
Pressure: 1015.1 hPa 1010.4 hPa -
Precipitation: 0 mm    
Historical Graphs
 
 
Tabular Data for May 17, 2017
Time Temperature Dew Point Pressure Wind Wind Speed Wind Gust Humidity Rainfall Rate (Hourly)
00:04 16.3 °C 10.6 °C 1013.8 hPa Calm     69 % 0 mm
00:09 16.3 °C 10.8 °C 1013.8 hPa Calm   1.9 km/h 70 % 0 mm
00:14 16.3 °C 10.8 °C 1013.8 hPa SW 0.8 km/h 1.9 km/h 70 % 0 mm
00:19 16.2 °C 10.7 °C 1013.8 hPa SW 1.4 km/h 1.9 km/h 70 % 0 mm
00:24 16.2 °C 10.7 °C 1013.8 hPa SW 0.5 km/h 3.2 km/h 70 % 0 mm
00:29 16.2 °C 10.9 °C 1013.8 hPa SW 2.1 km/h 3.7 km/h 71 % 0 mm
00:34 16.2 °C 10.9 °C 1013.8 hPa Calm   1.9 km/h 71 % 0 mm
00:39 16.2 °C 10.9 °C 1013.8 hPa SW 1 km/h 3.2 km/h 71 % 0 mm
00:44 16.2 °C 10.9 °C 1013.8 hPa Calm   3.7 km/h 71 % 0 mm
00:49 16.2 °C 10.9 °C 1013.8 hPa SW 0.8 km/h 1.9 km/h 71 % 0 mm
00:54 16.1 °C 10.8 °C 1013.8 hPa SW 0.3 km/h 1.9 km/h 71 % 0 mm
00:59 16.1 °C 10.8 °C 1013.8 hPa Calm   1.6 km/h 71 % 0 mm
01:04 16 °C 10.6 °C 1013.8 hPa SW 0.2 km/h 1.9 km/h 70 % 0 mm
01:09 15.9 °C 10.7 °C 1013.8 hPa SW 0.3 km/h 1.9 km/h 71 % 0 mm
01:11 15.9 °C 10.7 °C 1013.8 hPa SW 0.3 km/h 1.9 km/h 71 % 0 mm
01:15 15.9 °C 10.6 °C 1013.8 hPa SW 0.2 km/h 1.9 km/h 71 % 0 mm
01:21 15.8 °C 10.6 °C 1013.8 hPa Calm   1.6 km/h 71 % 0 mm
01:26 15.8 °C 10.6 °C 1013.8 hPa Calm     71 % 0 mm
01:31 15.8 °C 10.6 °C 1013.8 hPa Calm     71 % 0 mm
01:36 15.8 °C 10.5 °C 1013.8 hPa Calm     71 % 0 mm
01:41 15.7 °C 10.7 °C 1013.8 hPa Calm     72 % 0 mm
01:46 15.7 °C 10.6 °C 1013.8 hPa Calm     72 % 0 mm
01:51 15.7 °C 10.6 °C 1013.8 hPa Calm     72 % 0 mm
01:56 15.6 °C 10.8 °C 1013.8 hPa Calm     73 % 0 mm
02:01 15.6 °C 11 °C 1013.8 hPa Calm   1.9 km/h 74 % 0 mm
02:06 15.6 °C 11.2 °C 1013.8 hPa Calm   1.6 km/h 75 % 0 mm
02:11 15.6 °C 11.2 °C 1013.8 hPa Calm   1.6 km/h 75 % 0 mm
02:21 15.5 °C 11.1 °C 1013.8 hPa Calm     75 % 0 mm
02:25 15.4 °C 11.1 °C 1013.8 hPa WSW 1.8 km/h 3.7 km/h 75 % 0 mm
02:30 15.4 °C 11.2 °C 1013.8 hPa WSW 1.6 km/h 3.2 km/h 76 % 0 mm
02:35 15.4 °C 11.2 °C 1013.8 hPa SW 1.4 km/h 5.6 km/h 76 % 0 mm
02:41 15.5 °C 11.1 °C 1013.8 hPa WSW 1.6 km/h 4.8 km/h 75 % 0 mm
02:46 15.6 °C 11.2 °C 1013.8 hPa Calm   3.2 km/h 75 % 0 mm
02:51 15.6 °C 11.2 °C 1013.8 hPa SSW 0.2 km/h 5.6 km/h 75 % 0 mm
02:56 15.7 °C 11.3 °C 1013.8 hPa SW 1.6 km/h 6.4 km/h 75 % 0 mm
03:01 15.8 °C 11.3 °C 1013.8 hPa WSW 0.2 km/h 1.9 km/h 75 % 0 mm
03:06 15.8 °C 11.2 °C 1013.8 hPa Calm   6.4 km/h 74 % 0 mm
03:11 15.8 °C 11.2 °C 1014.1 hPa Calm     74 % 0 mm
03:16 15.9 °C 11.3 °C 1014.1 hPa Calm   1.6 km/h 74 % 0 mm
03:21 15.9 °C 11.1 °C 1013.8 hPa Calm     73 % 0 mm
03:26 15.9 °C 11.3 °C 1014.1 hPa Calm     74 % 0 mm
03:31 15.9 °C 11.3 °C 1014.1 hPa Calm     74 % 0 mm
03:36 15.9 °C 11.1 °C 1014.1 hPa Calm     73 % 0 mm
03:41 15.8 °C 11 °C 1014.1 hPa Calm     73 % 0 mm
03:46 15.8 °C 11.2 °C 1014.1 hPa Calm     74 % 0 mm
03:51 15.7 °C 11.1 °C 1014.1 hPa Calm     74 % 0 mm
03:56 15.7 °C 11.2 °C 1014.1 hPa Calm     75 % 0 mm
04:01 15.6 °C 11.2 °C 1014.1 hPa Calm     75 % 0 mm
04:06 15.5 °C 11.1 °C 1014.1 hPa Calm     75 % 0 mm
04:11 15.4 °C 11.2 °C 1014.1 hPa Calm     76 % 0 mm
04:16 15.3 °C 11.3 °C 1014.4 hPa Calm     77 % 0 mm
04:21 15.2 °C 11.4 °C 1014.4 hPa Calm     78 % 0 mm
04:26 15.1 °C 11.3 °C 1014.4 hPa Calm     78 % 0 mm
04:31 15 °C 11.2 °C 1014.4 hPa Calm     78 % 0 mm
04:36 14.8 °C 11.2 °C 1014.4 hPa Calm     79 % 0 mm
04:41 14.7 °C 11.3 °C 1014.8 hPa Calm     80 % 0 mm
04:46 14.6 °C 11.3 °C 1014.4 hPa Calm     81 % 0 mm
04:51 14.4 °C 11.2 °C 1014.4 hPa Calm     81 % 0 mm
04:56 14.3 °C 11.1 °C 1014.4 hPa Calm     81 % 0 mm
05:01 14.2 °C 11 °C 1014.4 hPa Calm     81 % 0 mm
05:06 14.1 °C 10.9 °C 1014.4 hPa Calm     81 % 0 mm
05:11 14 °C 10.8 °C 1014.4 hPa Calm     81 % 0 mm
05:16 13.9 °C 10.9 °C 1014.4 hPa Calm     82 % 0 mm
05:21 13.8 °C 10.8 °C 1014.4 hPa Calm     82 % 0 mm
05:26 13.8 °C 10.8 °C 1014.4 hPa Calm     82 % 0 mm
05:31 13.7 °C 10.7 °C 1014.8 hPa Calm     82 % 0 mm
05:41 13.6 °C 10.7 °C 1014.8 hPa Calm     83 % 0 mm
05:46 13.6 °C 10.9 °C 1014.8 hPa Calm     84 % 0 mm
05:51 13.5 °C 11 °C 1014.8 hPa Calm     85 % 0 mm
05:57 13.4 °C 11.2 °C 1014.8 hPa Calm     86 % 0 mm
06:01 13.4 °C 11.2 °C 1014.8 hPa Calm     86 % 0 mm
06:07 13.4 °C 11.3 °C 1014.8 hPa Calm     87 % 0 mm
06:12 13.4 °C 11.3 °C 1014.8 hPa Calm     87 % 0 mm
06:17 13.5 °C 11.6 °C 1014.8 hPa Calm     88 % 0 mm
06:22 13.6 °C 11.6 °C 1014.8 hPa Calm   3.7 km/h 88 % 0 mm
06:27 13.7 °C 11.9 °C 1014.8 hPa SW 1.3 km/h 4.8 km/h 89 % 0 mm
06:32 13.9 °C 12.1 °C 1014.8 hPa SSW 1.9 km/h 5.6 km/h 89 % 0 mm
06:37 14.1 °C 12.3 °C 1014.8 hPa SW 3.4 km/h 5.6 km/h 89 % 0 mm
06:42 14.4 °C 12.5 °C 1014.8 hPa WSW 2.3 km/h 5.6 km/h 88 % 0 mm
06:47 14.8 °C 12.6 °C 1014.8 hPa Calm   1.9 km/h 87 % 0 mm
06:52 15.2 °C 12.8 °C 1014.8 hPa SW 1.1 km/h 5.6 km/h 86 % 0 mm
06:57 15.6 °C 13.1 °C 1014.8 hPa SW 1.4 km/h 3.7 km/h 85 % 0 mm
07:02 16 °C 13.1 °C 1014.8 hPa WSW 1.1 km/h 5.6 km/h 83 % 0 mm
07:07 16.4 °C 13.3 °C 1014.8 hPa SW 1 km/h 5.6 km/h 82 % 0 mm
07:12 16.9 °C 13.4 °C 1014.8 hPa WSW 2.3 km/h 5.6 km/h 80 % 0 mm
07:17 17.4 °C 13.8 °C 1014.8 hPa WSW 1.6 km/h 5.6 km/h 79 % 0 mm
07:22 17.9 °C 13.8 °C 1014.8 hPa SW 1.3 km/h 5.6 km/h 77 % 0 mm
07:27 18.3 °C 13.8 °C 1014.8 hPa WSW 5.1 km/h 9.3 km/h 75 % 0 mm
07:32 18.7 °C 13.9 °C 1015.1 hPa West 4 km/h 7.4 km/h 74 % 0 mm
07:37 19.1 °C 13.9 °C 1014.8 hPa SW 3.2 km/h 9.3 km/h 72 % 0 mm
07:42 19.3 °C 14.2 °C 1014.8 hPa SSW 1.6 km/h 5.6 km/h 72 % 0 mm
07:47 19.6 °C 13.9 °C 1014.8 hPa WSW 4.5 km/h 8 km/h 70 % 0 mm
07:52 19.8 °C 14.2 °C 1014.8 hPa SW 3.7 km/h 5.6 km/h 70 % 0 mm
07:57 19.9 °C 14.1 °C 1014.8 hPa SSW 4.5 km/h 6.4 km/h 69 % 0 mm
08:02 20.2 °C 14.1 °C 1014.8 hPa SSW 4.3 km/h 11.1 km/h 68 % 0 mm
08:07 20.4 °C 14.1 °C 1014.8 hPa SW 3.1 km/h 9.3 km/h 67 % 0 mm
08:12 20.7 °C 14.2 °C 1014.8 hPa WSW 5.1 km/h 18.5 km/h 66 % 0 mm
08:18 21 °C 14.4 °C 1014.8 hPa WSW 1.8 km/h 5.6 km/h 66 % 0 mm
08:23 21.3 °C 14.7 °C 1014.8 hPa Calm   3.7 km/h 66 % 0 mm
08:28 21.6 °C 14.9 °C 1014.8 hPa West 1.4 km/h 7.4 km/h 66 % 0 mm
08:33 21.8 °C 14.7 °C 1014.8 hPa SW 4.7 km/h 11.1 km/h 64 % 0 mm
08:38 22.1 °C 14.9 °C 1014.8 hPa SW 7.2 km/h 9.3 km/h 64 % 0 mm
08:43 22.3 °C 14.7 °C 1015.1 hPa SSW 7.6 km/h 13 km/h 62 % 0 mm
08:48 22.4 °C 15.1 °C 1014.8 hPa West 4.8 km/h 13 km/h 63 % 0 mm
08:53 22.6 °C 15.2 °C 1014.8 hPa West 5.6 km/h 16.7 km/h 63 % 0 mm
08:58 22.8 °C 15.4 °C 1014.8 hPa WSW 1.4 km/h 5.6 km/h 63 % 0 mm
09:03 23.1 °C 15.1 °C 1014.8 hPa SSW 6.4 km/h 11.1 km/h 61 % 0 mm
09:08 23.3 °C 15.1 °C 1014.8 hPa WSW 5.8 km/h 7.4 km/h 60 % 0 mm
09:13 23.5 °C 15.3 °C 1014.8 hPa WSW 4.8 km/h 9.3 km/h 60 % 0 mm
09:18 23.7 °C 15.2 °C 1014.8 hPa SSW 1.8 km/h 9.3 km/h 59 % 0 mm
09:23 23.9 °C 15.2 °C 1014.4 hPa SSW 6.6 km/h 11.1 km/h 58 % 0 mm
09:28 24.2 °C 15.7 °C 1014.8 hPa SW 7.1 km/h 16.7 km/h 59 % 0 mm
09:33 24.5 °C 15.7 °C 1014.8 hPa SSW 4.5 km/h 11.3 km/h 58 % 0 mm
09:38 24.8 °C 15.7 °C 1014.4 hPa WNW 1.9 km/h 18.5 km/h 57 % 0 mm
09:43 25.1 °C 15.7 °C 1014.4 hPa SW 5.6 km/h 16.7 km/h 56 % 0 mm
09:48 25.4 °C 16.5 °C 1014.4 hPa SW 2.1 km/h 6.4 km/h 58 % 0 mm
09:53 25.7 °C 16.6 °C 1014.4 hPa West 2.4 km/h 5.6 km/h 57 % 0 mm
09:58 26.1 °C 16.7 °C 1014.4 hPa NW 1.3 km/h 3.7 km/h 56 % 0 mm
10:03 26.3 °C 16.6 °C 1014.4 hPa WNW 3.7 km/h 6.4 km/h 55 % 0 mm
10:08 26.6 °C 16.8 °C 1014.1 hPa SW 3.2 km/h 8 km/h 55 % 0 mm
10:13 26.9 °C 17.7 °C 1014.1 hPa WSW 5.3 km/h 6.4 km/h 57 % 0 mm
10:18 27.2 °C 16.8 °C 1014.1 hPa West 7.4 km/h 9.3 km/h 53 % 0 mm
10:24 27.4 °C 17 °C 1014.1 hPa West 10.5 km/h 12.9 km/h 53 % 0 mm
10:29 27.7 °C 17.6 °C 1014.1 hPa WSW 2.9 km/h 6.4 km/h 54 % 0 mm
10:34 27.8 °C 17.1 °C 1014.1 hPa WSW 4.2 km/h 5.6 km/h 52 % 0 mm
10:39 28.2 °C 17.1 °C 1013.8 hPa SW 9.5 km/h 11.1 km/h 51 % 0 mm
10:44 28.4 °C 17.3 °C 1013.8 hPa SW 3.2 km/h 8 km/h 51 % 0 mm
10:49 28.6 °C 17.5 °C 1013.8 hPa SW 5.6 km/h 9.7 km/h 51 % 0 mm
10:54 28.9 °C 17.5 °C 1013.8 hPa WNW 2.3 km/h 5.6 km/h 50 % 0 mm
10:59 29.2 °C 18.3 °C 1013.8 hPa West 4.7 km/h 9.3 km/h 52 % 0 mm
11:04 29.4 °C 17.2 °C 1013.8 hPa West 6.8 km/h 13 km/h 48 % 0 mm
11:09 29.6 °C 17.1 °C 1013.8 hPa SSW 4.3 km/h 9.3 km/h 47 % 0 mm
11:14 29.8 °C 17.7 °C 1013.4 hPa West 2.4 km/h 13 km/h 48 % 0 mm
11:19 30.3 °C 18.4 °C 1013.4 hPa SSW 2.6 km/h 5.6 km/h 49 % 0 mm
11:24 30.6 °C 17.3 °C 1013.8 hPa WSW 5.3 km/h 9.3 km/h 45 % 0 mm
11:29 30.8 °C 17.8 °C 1013.4 hPa SW 5.8 km/h 11.3 km/h 46 % 0 mm
11:34 30.9 °C 16.9 °C 1013.4 hPa WSW 8.4 km/h 11.1 km/h 43 % 0 mm
11:39 31.1 °C 18.1 °C 1013.8 hPa North 5.6 km/h 13 km/h 46 % 0 mm
11:44 31.2 °C 17.9 °C 1013.4 hPa WNW 8 km/h 14.8 km/h 45 % 0 mm
11:49 31.4 °C 17.7 °C 1013.4 hPa SW 5.3 km/h 11.1 km/h 44 % 0 mm
11:54 31.5 °C 17.8 °C 1013.1 hPa WSW 8 km/h 13 km/h 44 % 0 mm
11:59 31.6 °C 18.6 °C 1013.1 hPa SW 6.6 km/h 13 km/h 46 % 0 mm
12:04 31.7 °C 17.2 °C 1013.1 hPa SW 9.5 km/h 18.5 km/h 42 % 0 mm
12:09 31.7 °C 18.3 °C 1013.1 hPa SSW 1.6 km/h 5.6 km/h 45 % 0 mm
12:14 32 °C 19.3 °C 1013.1 hPa SW 6.1 km/h 11.3 km/h 47 % 0 mm
12:17 32.2 °C 18.4 °C 1012.8 hPa West 2.3 km/h 13 km/h 44 % 0 mm
12:22 32.3 °C 17.7 °C 1012.8 hPa WSW 5.8 km/h 11.1 km/h 42 % 0 mm
12:27 32.4 °C 18.2 °C 1012.8 hPa SW 8 km/h 11.1 km/h 43 % 0 mm
12:32 32.6 °C 19.1 °C 1012.8 hPa SSW 6.9 km/h 11.3 km/h 45 % 0 mm
12:37 32.6 °C 18.4 °C 1012.8 hPa SW 6.4 km/h 11.1 km/h 43 % 0 mm
12:42 32.7 °C 18.8 °C 1012.8 hPa SW 4.2 km/h 14.5 km/h 44 % 0 mm
12:47 32.8 °C 19 °C 1012.4 hPa SW 8.2 km/h 14.8 km/h 44 % 0 mm
12:52 32.9 °C 18.3 °C 1012.4 hPa SE 1.4 km/h 13 km/h 42 % 0 mm
12:57 33.1 °C 19.6 °C 1012.4 hPa SSW 5.3 km/h 9.3 km/h 45 % 0 mm
13:02 33.1 °C 18.1 °C 1012.4 hPa SW 9.3 km/h 14.5 km/h 41 % 0 mm
13:07 33 °C 18 °C 1012.4 hPa SW 7.4 km/h 11.1 km/h 41 % 0 mm
13:12 33.1 °C 18.8 °C 1012.4 hPa SW 4.8 km/h 6.4 km/h 43 % 0 mm
13:17 33.1 °C 19.2 °C 1012.4 hPa SW 6.9 km/h 20.9 km/h 44 % 0 mm
13:22 33.1 °C 18.8 °C 1012.4 hPa SSW 8.7 km/h 9.7 km/h 43 % 0 mm
13:27 33.2 °C 19.3 °C 1012.4 hPa SSW 5.1 km/h 13 km/h 44 % 0 mm
13:32 33.2 °C 18.9 °C 1012.4 hPa SSW 8.9 km/h 11.3 km/h 43 % 0 mm
13:37 33.2 °C 18.6 °C 1012.1 hPa SW 4.8 km/h 14.5 km/h 42 % 0 mm
13:42 33.3 °C 18.2 °C 1012.1 hPa South 5.8 km/h 11.1 km/h 41 % 0 mm
13:47 33.1 °C 19.2 °C 1012.1 hPa South 6 km/h 9.3 km/h 44 % 0 mm
13:57 33.2 °C 18.9 °C 1012.1 hPa SSW 1.9 km/h 5.6 km/h 43 % 0 mm
14:02 33.1 °C 18.8 °C 1012.1 hPa South 8.2 km/h 11.1 km/h 43 % 0 mm
14:07 33.2 °C 18.9 °C 1012.1 hPa SW 5.1 km/h 11.1 km/h 43 % 0 mm
14:12 33.1 °C 18.5 °C 1011.7 hPa SSW 5.1 km/h 5.6 km/h 42 % 0 mm
14:17 33.1 °C 18.5 °C 1011.7 hPa SSW 7.2 km/h 11.1 km/h 42 % 0 mm
14:22 33.1 °C 18.8 °C 1011.7 hPa SSW 7.2 km/h 11.3 km/h 43 % 0 mm
14:28 33.1 °C 19.2 °C 1011.7 hPa SSE 5.8 km/h 13 km/h 44 % 0 mm
14:33 32.9 °C 19.1 °C 1011.7 hPa SW 5.1 km/h 5.6 km/h 44 % 0 mm
14:38 33 °C 19.1 °C 1011.7 hPa WSW 4 km/h 5.6 km/h 44 % 0 mm
14:43 32.9 °C 19.4 °C 1011.4 hPa SSW 1.8 km/h 7.4 km/h 45 % 0 mm
14:48 33 °C 19.1 °C 1011.7 hPa SSW 9.5 km/h 11.1 km/h 44 % 0 mm
14:53 33.1 °C 19.2 °C 1011.7 hPa SSE 6 km/h 14.8 km/h 44 % 0 mm
14:58 33.1 °C 19.6 °C 1011.4 hPa South 1.9 km/h 5.6 km/h 45 % 0 mm
15:03 33.1 °C 19.6 °C 1011.1 hPa SSW 0.6 km/h 7.4 km/h 45 % 0 mm
15:08 33.2 °C 19.6 °C 1011.4 hPa SSW 7.4 km/h 11.3 km/h 45 % 0 mm
15:10 33.2 °C 19.3 °C 1011.1 hPa SSW 4 km/h 11.1 km/h 44 % 0 mm
15:15 33.2 °C 18.9 °C 1011.1 hPa South 8.9 km/h 14.8 km/h 43 % 0 mm
15:20 33.1 °C 18.8 °C 1011.1 hPa South 10.5 km/h 18.5 km/h 43 % 0 mm
15:25 32.9 °C 19.4 °C 1011.1 hPa SW 6.4 km/h 13 km/h 45 % 0 mm
15:30 32.8 °C 18.6 °C 1010.7 hPa SE 3.5 km/h 9.3 km/h 43 % 0 mm
15:35 32.8 °C 19.6 °C 1010.7 hPa SSW 2.9 km/h 6.4 km/h 46 % 0 mm
15:40 32.7 °C 18.8 °C 1011.1 hPa SSW 2.9 km/h 5.6 km/h 44 % 0 mm
15:45 32.5 °C 19.1 °C 1010.7 hPa SSW 7.1 km/h 9.3 km/h 45 % 0 mm
15:50 32.3 °C 19.2 °C 1010.7 hPa SW 6.3 km/h 9.3 km/h 46 % 0 mm
15:55 32.3 °C 19.2 °C 1011.1 hPa SSW 11.3 km/h 20.9 km/h 46 % 0 mm
16:00 32.3 °C 19.2 °C 1011.1 hPa SSW 5 km/h 11.1 km/h 46 % 0 mm
16:05 32.2 °C 19.1 °C 1011.1 hPa SW 8 km/h 11.3 km/h 46 % 0 mm
16:10 32.2 °C 19.1 °C 1010.7 hPa South 6.1 km/h 18.5 km/h 46 % 0 mm
16:15 32.1 °C 19.1 °C 1010.7 hPa SSW 9 km/h 14.8 km/h 46 % 0 mm
16:20 32 °C 19.3 °C 1010.7 hPa SSE 5.3 km/h 9.3 km/h 47 % 0 mm
16:25 31.8 °C 19.1 °C 1010.7 hPa SSW 4.2 km/h 8 km/h 47 % 0 mm
16:30 31.7 °C 19 °C 1010.7 hPa South 10.9 km/h 13 km/h 47 % 0 mm
16:35 31.7 °C 19.3 °C 1010.7 hPa SW 2.3 km/h 5.6 km/h 48 % 0 mm
16:40 31.7 °C 19 °C 1010.7 hPa SSW 7.4 km/h 13 km/h 47 % 0 mm
16:45 31.6 °C 19.2 °C 1010.7 hPa South 0.6 km/h 3.7 km/h 48 % 0 mm
16:50 31.5 °C 19.5 °C 1010.7 hPa South 3.4 km/h 11.1 km/h 49 % 0 mm
16:55 31.4 °C 19.4 °C 1010.7 hPa SE 4.3 km/h 9.3 km/h 49 % 0 mm
17:00 31.2 °C 18.9 °C 1010.7 hPa South 5.6 km/h 18.5 km/h 48 % 0 mm
17:05 31.2 °C 19.2 °C 1010.7 hPa SW 1.9 km/h 5.6 km/h 49 % 0 mm
17:10 30.9 °C 19.3 °C 1010.7 hPa SSE 4.5 km/h 11.1 km/h 50 % 0 mm
17:15 30.7 °C 19.1 °C 1010.7 hPa SSW 4.3 km/h 7.4 km/h 50 % 0 mm
17:20 30.6 °C 19.3 °C 1010.7 hPa SE 6.3 km/h 13 km/h 51 % 0 mm
17:25 30.4 °C 19.1 °C 1010.7 hPa SSW 1.9 km/h 8 km/h 51 % 0 mm
17:31 30.3 °C 19 °C 1010.7 hPa SSW 1.6 km/h 9.7 km/h 51 % 0 mm
17:36 30.2 °C 18.9 °C 1010.7 hPa SSW 3.2 km/h 9.7 km/h 51 % 0 mm
17:41 30 °C 19.1 °C 1010.7 hPa South 3.2 km/h 9.7 km/h 52 % 0 mm
17:46 29.8 °C 18.9 °C 1010.7 hPa SSW 9.7 km/h 12.9 km/h 52 % 0 mm
17:51 29.7 °C 18.8 °C 1010.7 hPa SSW 8 km/h 12.9 km/h 52 % 0 mm
17:56 29.4 °C 18.9 °C 1010.7 hPa SSW 8 km/h 19.3 km/h 53 % 0 mm
18:01 29.3 °C 18.7 °C 1010.7 hPa SSW 7.1 km/h 11.1 km/h 53 % 0 mm
18:05 29.1 °C 18.8 °C 1010.7 hPa SSW 5.1 km/h 11.1 km/h 54 % 0 mm
18:10 28.8 °C 18.9 °C 1010.7 hPa SSW 6.1 km/h 6.4 km/h 55 % 0 mm
18:11 28.8 °C 18.9 °C 1010.4 hPa SSW 5.8 km/h 14.8 km/h 55 % 0 mm
18:16 28.6 °C 18.7 °C 1010.4 hPa SW 7.7 km/h 13 km/h 55 % 0 mm
18:21 28.4 °C 18.8 °C 1010.4 hPa South 4.3 km/h 11.1 km/h 56 % 0 mm
18:26 28.3 °C 18.7 °C 1010.4 hPa South 4.2 km/h 7.4 km/h 56 % 0 mm
18:31 28.2 °C 18.8 °C 1010.4 hPa SW 5.6 km/h 9.3 km/h 57 % 0 mm
18:36 28.1 °C 18.7 °C 1010.4 hPa SSW 5 km/h 9.3 km/h 57 % 0 mm
18:41 27.9 °C 18.6 °C 1010.4 hPa South 6.8 km/h 11.1 km/h 57 % 0 mm
18:43 27.9 °C 18.6 °C 1010.4 hPa South 2.7 km/h 11.1 km/h 57 % 0 mm
18:46 27.9 °C 18.9 °C 1010.4 hPa SSW 6.1 km/h 9.7 km/h 58 % 0 mm
18:47 27.8 °C 18.8 °C 1010.4 hPa SSW 7.4 km/h 13 km/h 58 % 0 mm
18:52 27.7 °C 18.7 °C 1010.4 hPa SW 2.3 km/h 5.6 km/h 58 % 0 mm
18:57 27.6 °C 18.9 °C 1010.7 hPa South 2.4 km/h 5.6 km/h 59 % 0 mm
19:02 27.4 °C 18.7 °C 1010.4 hPa SSW 4.3 km/h 11.1 km/h 59 % 0 mm
19:07 27.3 °C 18.6 °C 1010.7 hPa SSW 3.1 km/h 5.6 km/h 59 % 0 mm
19:12 27.2 °C 18.7 °C 1010.7 hPa SSE 2.3 km/h 5.6 km/h 60 % 0 mm
19:17 27.1 °C 18.9 °C 1010.7 hPa SSE 1.6 km/h 5.6 km/h 61 % 0 mm
19:22 26.9 °C 18.7 °C 1010.7 hPa SE 1.3 km/h 3.7 km/h 61 % 0 mm
19:27 26.8 °C 18.6 °C 1010.7 hPa South 1.8 km/h 3.7 km/h 61 % 0 mm
19:32 26.6 °C 18.4 °C 1010.7 hPa South 3.4 km/h 5.6 km/h 61 % 0 mm
19:37 26.4 °C 18.6 °C 1010.7 hPa South 2.6 km/h 5.6 km/h 62 % 0 mm
19:42 26.2 °C 18.4 °C 1010.7 hPa South 2.6 km/h 5.6 km/h 62 % 0 mm
19:47 26.1 °C 18.2 °C 1010.7 hPa SSE 1.8 km/h 5.6 km/h 62 % 0 mm
19:52 25.9 °C 18.3 °C 1010.7 hPa SW 1.6 km/h 3.2 km/h 63 % 0 mm
19:58 25.8 °C 18.2 °C 1010.7 hPa SSE 2.3 km/h 9.3 km/h 63 % 0 mm
20:03 25.6 °C 18.2 °C 1011.1 hPa SSW 0.6 km/h 5.6 km/h 64 % 0 mm
20:08 25.4 °C 18.1 °C 1011.1 hPa SSW 0.3 km/h 1.9 km/h 64 % 0 mm
20:13 25.3 °C 18.3 °C 1011.1 hPa SE 1 km/h 5.6 km/h 65 % 0 mm
20:18 25.1 °C 18.1 °C 1011.1 hPa SE 0.2 km/h 3.7 km/h 65 % 0 mm
20:23 24.9 °C 18.2 °C 1011.1 hPa SW 0.6 km/h 3.7 km/h 66 % 0 mm
20:28 24.8 °C 18.1 °C 1011.1 hPa SSW 0.8 km/h 5.6 km/h 66 % 0 mm
20:33 24.7 °C 18.1 °C 1011.1 hPa South 0.5 km/h 3.7 km/h 67 % 0 mm
20:38 24.5 °C 17.9 °C 1011.1 hPa South 1 km/h 3.7 km/h 67 % 0 mm
20:43 24.4 °C 17.9 °C 1011.1 hPa South 3.4 km/h 5.6 km/h 67 % 0 mm
20:48 24.3 °C 18 °C 1011.1 hPa WSW 1.6 km/h 3.7 km/h 68 % 0 mm
20:53 24.2 °C 17.9 °C 1011.4 hPa Calm   5.6 km/h 68 % 0 mm
20:58 24.1 °C 18.1 °C 1011.4 hPa WSW 1.4 km/h 3.7 km/h 69 % 0 mm
21:03 23.9 °C 17.9 °C 1011.4 hPa WSW 0.6 km/h 3.7 km/h 69 % 0 mm
21:08 23.8 °C 17.8 °C 1011.4 hPa WSW 1.4 km/h 5.6 km/h 69 % 0 mm
21:13 23.7 °C 17.9 °C 1011.4 hPa SSW 3.2 km/h 5.6 km/h 70 % 0 mm
21:18 23.7 °C 17.9 °C 1011.4 hPa SSE 1.9 km/h 5.6 km/h 70 % 0 mm
21:23 23.6 °C 18.1 °C 1011.4 hPa SSW 7.1 km/h 7.1 km/h 71 % 0 mm
21:28 23.6 °C 18.1 °C 1011.4 hPa WSW 1.8 km/h 11.1 km/h 71 % 0 mm
21:33 23.6 °C 18 °C 1011.4 hPa SW 3.2 km/h 8 km/h 71 % 0 mm
21:38 23.6 °C 18.1 °C 1011.7 hPa SW 1.4 km/h 5.6 km/h 71 % 0 mm
21:43 23.6 °C 18.1 °C 1011.7 hPa SW 5.5 km/h 5.6 km/h 71 % 0 mm
21:49 23.7 °C 18.1 °C 1011.7 hPa SW 3.9 km/h 5.6 km/h 71 % 0 mm
21:54 23.7 °C 18.2 °C 1011.7 hPa SSW 4.5 km/h 5.6 km/h 71 % 0 mm
21:59 23.7 °C 18.2 °C 1011.7 hPa SW 5 km/h 11.1 km/h 71 % 0 mm
22:04 23.8 °C 18.2 °C 1011.7 hPa SW 2.7 km/h 5.6 km/h 71 % 0 mm
22:09 23.9 °C 18.1 °C 1011.7 hPa SSW 5 km/h 7.4 km/h 70 % 0 mm
22:14 23.9 °C 18.1 °C 1011.7 hPa WSW 2.4 km/h 7.4 km/h 70 % 0 mm
22:19 24 °C 18.2 °C 1011.7 hPa WSW 1.4 km/h 3.7 km/h 70 % 0 mm
22:24 24.1 °C 18.2 °C 1011.7 hPa WSW 2.6 km/h 5.6 km/h 70 % 0 mm
22:29 24.2 °C 18.3 °C 1011.7 hPa West 4.8 km/h 7.4 km/h 70 % 0 mm
22:34 24.2 °C 18.4 °C 1011.7 hPa SSW 3.5 km/h 9.7 km/h 70 % 0 mm
22:39 24.3 °C 18.3 °C 1011.7 hPa WSW 3.5 km/h 9.3 km/h 69 % 0 mm
22:44 24.4 °C 18.3 °C 1011.7 hPa WNW 4.7 km/h 9.3 km/h 69 % 0 mm
22:49 24.4 °C 18.4 °C 1011.7 hPa WSW 6.3 km/h 12.9 km/h 69 % 0 mm
22:54 24.6 °C 18.5 °C 1011.7 hPa WSW 4.8 km/h 11.1 km/h 69 % 0 mm
22:59 24.6 °C 18.6 °C 1011.7 hPa SW 7.2 km/h 11.1 km/h 69 % 0 mm
23:04 24.6 °C 18.8 °C 1011.7 hPa SW 5.5 km/h 9.7 km/h 70 % 0 mm
23:09 24.6 °C 18.8 °C 1011.7 hPa WSW 3.4 km/h 9.3 km/h 70 % 0 mm
23:14 24.6 °C 18.8 °C 1011.7 hPa West 3.1 km/h 5.6 km/h 70 % 0 mm
23:19 24.6 °C 18.8 °C 1011.7 hPa SSW 4.2 km/h 5.6 km/h 70 % 0 mm
23:24 24.7 °C 19.1 °C 1011.7 hPa SSW 7.4 km/h 13 km/h 71 % 0 mm
23:29 24.7 °C 19.1 °C 1011.7 hPa SSW 7.2 km/h 18.5 km/h 71 % 0 mm
23:34 24.7 °C 19.1 °C 1011.7 hPa SSW 3.4 km/h 8 km/h 71 % 0 mm
23:44 24.7 °C 19.1 °C 1011.7 hPa SW 5 km/h 11.1 km/h 71 % 0 mm
23:49 24.7 °C 19.1 °C 1011.7 hPa WSW 5.6 km/h 9.3 km/h 71 % 0 mm
23:50 24.7 °C 19.1 °C 1011.7 hPa WSW 3.2 km/h 9.3 km/h 71 % 0 mm
23:55 24.7 °C 19.1 °C 1011.7 hPa WSW 2.7 km/h 13 km/h 71 % 0 mm
Crab Meadow Weather
Compliments of Weather Underground - 3 mb

Script developed by  Jim McMurry - jmcmurry@mwt.net Adapted for the template by  Wim van der Kuil - Leuven-Template.eu

Weather Terms: Heavy Sleet Warning - Accumulations of 1/2 inch or more of sleet.